This is the latest recevied weather packets stored in our database for station/object KQ4WWD. If no packets are shown the sender has not sent any weather packets the latest 10 day(s).
| Time | Temp. | Humidity | Pressure | Rain* | Wind** | Luminosity | Snow |
|---|---|---|---|---|---|---|---|
| 1777581774 | 30° C | 61% | 1009.1 hPa | 0 mm | - | 627 W/m² | - |
| 1777581472 | 30.56° C | 58% | 1009.3 hPa | 0 mm | - | 439 W/m² | - |
| 1777581168 | 30.56° C | 60% | 1009.2 hPa | 0 mm | - | 243 W/m² | - |
| 1777580868 | 30.56° C | 59% | 1009.2 hPa | 0 mm | - | 462 W/m² | - |
| 1777580563 | 31.11° C | 60% | 1009.3 hPa | 0 mm | - | 558 W/m² | - |
| 1777580259 | 31.11° C | 58% | 1009.2 hPa | 0 mm | - | 563 W/m² | - |
| 1777579956 | 31.11° C | 57% | 1009.3 hPa | 0 mm | - | 488 W/m² | - |
| 1777579651 | 31.11° C | 57% | 1009.1 hPa | 0 mm | - | 563 W/m² | - |
| 1777579350 | 31.11° C | 58% | 1009.3 hPa | 0 mm | - | 601 W/m² | - |
| 1777579046 | 31.11° C | 57% | 1009.3 hPa | 0 mm | - | 613 W/m² | - |
| 1777578741 | 30.56° C | 58% | 1009.2 hPa | 0 mm | - | 611 W/m² | - |
| 1777578441 | 31.11° C | 57% | 1009.6 hPa | 0 mm | - | 596 W/m² | - |
| 1777578136 | 31.11° C | 57% | 1009.3 hPa | 0 mm | - | 488 W/m² | - |
| 1777577833 | 31.11° C | 58% | 1009.2 hPa | 0 mm | - | 619 W/m² | - |
| 1777577528 | 30.56° C | 58% | 1009.5 hPa | 0 mm | - | 661 W/m² | - |
| 1777577225 | 31.11° C | 58% | 1009.7 hPa | 0 mm | - | 637 W/m² | - |
| 1777576921 | 31.11° C | 56% | 1009.8 hPa | 0 mm | - | 632 W/m² | - |
| 1777576616 | 31.67° C | 55% | 1009.8 hPa | 0 mm | - | 679 W/m² | - |
| 1777576312 | 31.11° C | 56% | 1009.9 hPa | 0 mm | - | 710 W/m² | - |
| 1777576008 | 31.11° C | 58% | 1009.9 hPa | 0 mm | - | 219 W/m² | - |
| 1777575705 | 31.11° C | 56% | 1009.9 hPa | 0 mm | - | 703 W/m² | - |
| 1777575401 | 31.11° C | 58% | 1009.9 hPa | 0 mm | - | 564 W/m² | - |
| 1777575097 | 31.11° C | 56% | 1010 hPa | 0 mm | - | 638 W/m² | - |
| 1777574792 | 31.11° C | 56% | 1009.9 hPa | 0 mm | - | 281 W/m² | - |
| 1777574491 | 31.11° C | 57% | 1010.1 hPa | 0 mm | - | 322 W/m² | - |
* Rain latest hour (hover to see other rain measurements)
** Current wind speed in m/s (hover to see current wind gust speed)